sat.trackr.live / text

‹ back to catalog

STARLINK-36180

NORAD 67114 · 2025-299N

PAYLOAD ACTIVE UNKNOWN

§ Identity

Operator
Country
US
Launch date
2025-12-15
Launch site
AFETR
Launch vehicle
Mass (kg)
RCS (m²)

Purposes: comms

External: N2YO · Heavens-Above · Gunter

§ Orbital elements

Epoch: 2026-09-19T10:11:39.840288Z

Period
94.27 min
Inclination
43.0037°
Eccentricity
0.0001396
Mean motion
15.27587741 rev/d
Perigee alt
482.1 km
Apogee alt
484.0 km
Semi-major
6,861.2 km
B*
3.4283e-4
RAAN
155.0337°
Arg perigee
265.3378°
Mean anomaly
94.7314°
Rev number
4,274

§ Raw data

STARLINK-361801 67114U 25299N   26262.42476667  .00009186  00000+0  34283-3 0  99922 67114  43.0037 155.0337 0001396 265.3378  94.7314 15.27587741 42747

JSON: /api/v1/satellites/67114 · /tle

For live sub-satellite position, see the globe view (requires WebGL).

§ Visibility from observer

Set your observer location to see the next 7 days of passes ≥ 10°. The values pass through the URL so the page stays shareable.

No JS? Fill the form by hand. The geolocation button needs JavaScript.